Weather History for Stanton, MN

Change the Weather History Date:

Thursday, January 23, 2014

  Actual Average (KLVN) Record (KLVN)
Temperature  
Mean Temperature -7 °F -  
Max Temperature 4 °F 24 °F 51 °F (1981)
Min Temperature -16 °F 6 °F -28 °F (1963)
Degree Days  
Heating Degree Days 72    
Moisture  
Dew Point -17 °F    
Average Humidity 67    
Maximum Humidity 76    
Minimum Humidity 59    
Precipitation  
Precipitation 0.00 in - - ()
Sea Level Pressure  
Sea Level Pressure 30.56 in    
Wind  
Wind Speed 8 mph (West)    
Max Wind Speed 17 mph    
Max Gust Speed 21 mph    
Visibility 10 miles    
Events      
Averages and records for this station are not official NWS values.
T = Trace of Precipitation, MM = Missing Value Source: NWS Daily Summary

Daily Weather History Graph

Daily Weather History Graph

Search for Another Location

Airport:

Trip Planner

Search our weather history database for the weather conditions in past years. The results will help you decide how hot, cold, wet, or windy it might be!

Date:

Astronomy

Jan. 23, 2014 Rise Set
Actual Time 7:39 AM CST 5:08 PM CST
Civil Twilight 7:07 AM CST 5:40 PM CST
Nautical Twilight 6:32 AM CST 6:16 PM CST
Astronomical Twilight 5:57 AM CST 6:50 PM CST
Moon No Moon Rise 10:56 AM CST (1/23)
Length of Visible Light 10h 32m
Length of Day
9h 29m
Waning Gibbous, 55% of the Moon is Illuminated
Jan 23
Waning Gibbous
Jan 23
Last Quarter
Jan 30
New
Feb 6
First Quarter
Feb 14
Full

Hourly Weather History & Observations

Time (CST) Temp. Windchill Dew Point Humidity Pressure Visibility Wind Dir Wind Speed Gust Speed Precip Events Conditions
12:12 AM -7.2 °F -24.2 °F -16.6 °F 64% 30.45 in 10.0 mi NW 9.2 mph - N/A   Clear
12:32 AM -6.9 °F -24.8 °F -16.2 °F 64% 30.46 in 10.0 mi NW 10.4 mph - N/A   Clear
12:52 AM -8.5 °F -28.6 °F -17.5 °F 65% 30.47 in 10.0 mi WNW 12.7 mph - N/A   Clear
1:12 AM -9.0 °F -27.4 °F -18.0 °F 65% 30.48 in 10.0 mi WNW 10.4 mph - N/A   Clear
1:32 AM -9.4 °F -28.9 °F -18.0 °F 66% 30.49 in 10.0 mi WNW 11.5 mph - N/A   Clear
1:52 AM -9.8 °F -27.3 °F -18.4 °F 66% 30.50 in 10.0 mi NW 9.2 mph - N/A   Clear
2:12 AM -9.8 °F -28.3 °F -18.4 °F 66% 30.51 in 10.0 mi NW 10.4 mph - N/A   Clear
2:32 AM -10.3 °F -29.0 °F -18.8 °F 66% 30.52 in 10.0 mi NW 10.4 mph - N/A   Clear
2:52 AM -10.7 °F -27.2 °F -19.1 °F 66% 30.52 in 10.0 mi NW 8.1 mph - N/A   Clear
3:12 AM -11.2 °F -27.8 °F -19.5 °F 67% 30.53 in 10.0 mi WNW 8.1 mph - N/A   Clear
3:32 AM -11.7 °F -28.5 °F -19.7 °F 68% 30.54 in 10.0 mi NW 8.1 mph - N/A   Clear
3:52 AM -12.3 °F -30.4 °F -20.2 °F 68% 30.55 in 10.0 mi NW 9.2 mph - N/A   Clear
4:12 AM -12.1 °F -30.1 °F -20.2 °F 67% 30.56 in 10.0 mi NW 9.2 mph - N/A   Clear
4:32 AM -12.6 °F -30.8 °F -20.6 °F 68% 30.57 in 10.0 mi NW 9.2 mph - N/A   Clear
4:52 AM -13.4 °F -27.4 °F -21.1 °F 68% 30.58 in 10.0 mi West 5.8 mph - N/A   Clear
5:12 AM -13.9 °F -26.1 °F -21.5 °F 69% 30.59 in 10.0 mi WNW 4.6 mph - N/A   Clear
5:32 AM -14.3 °F -26.5 °F -21.6 °F 69% 30.60 in 10.0 mi WNW 4.6 mph - N/A   Clear
5:52 AM -14.8 °F -29.1 °F -22.2 °F 69% 30.60 in 10.0 mi WNW 5.8 mph - N/A   Clear
6:12 AM -15.0 °F -27.4 °F -22.4 °F 69% 30.62 in 10.0 mi WNW 4.6 mph - N/A   Clear
6:32 AM -16.1 °F -33.7 °F -23.4 °F 69% 30.63 in 10.0 mi WNW 8.1 mph - N/A   Clear
6:52 AM -16.6 °F -31.3 °F -24.0 °F 69% 30.63 in 10.0 mi WNW 5.8 mph - N/A   Clear
7:12 AM -16.2 °F -30.8 °F -23.6 °F 69% 30.64 in 10.0 mi West 5.8 mph - N/A   Clear
7:32 AM -16.2 °F -26.4 °F -23.8 °F 69% 30.65 in 10.0 mi West 3.5 mph - N/A   Clear
7:52 AM -16.1 °F -26.2 °F -23.1 °F 71% 30.65 in 10.0 mi West 3.5 mph - N/A   Clear
8:12 AM -15.9 °F -30.4 °F -23.1 °F 70% 30.66 in 10.0 mi West 5.8 mph - N/A   Clear
8:32 AM -15.9 °F -32.1 °F -23.3 °F 69% 30.67 in 10.0 mi West 6.9 mph - N/A   Clear
8:52 AM -15.3 °F -31.4 °F -22.9 °F 69% 30.67 in 10.0 mi West 6.9 mph - N/A   Clear
9:12 AM -15.0 °F -31.0 °F -22.9 °F 68% 30.68 in 10.0 mi West 6.9 mph - N/A   Clear
9:32 AM -13.9 °F -29.7 °F -22.0 °F 67% 30.68 in 10.0 mi WNW 6.9 mph - N/A   Clear
9:52 AM -13.2 °F -30.2 °F -21.6 °F 66% 30.69 in 10.0 mi WNW 8.1 mph - N/A   Clear
10:12 AM -12.5 °F -24.4 °F -21.1 °F 65% 30.70 in 10.0 mi West 4.6 mph - N/A   Clear
10:32 AM -12.1 °F -27.5 °F -21.1 °F 64% 30.70 in 10.0 mi West 6.9 mph - N/A   Clear
10:52 AM -11.2 °F -27.8 °F -20.9 °F 62% 30.71 in 10.0 mi West 8.1 mph - N/A   Clear
11:12 AM -10.7 °F -25.8 °F -20.6 °F 62% 30.70 in 10.0 mi West 6.9 mph - N/A   Clear
11:32 AM -9.9 °F -26.3 °F -20.0 °F 61% 30.70 in 10.0 mi West 8.1 mph - N/A   Clear
11:52 AM -9.4 °F -24.3 °F -19.3 °F 62% 30.68 in 10.0 mi West 6.9 mph - N/A   Clear
12:12 PM -8.5 °F -23.2 °F -18.9 °F 60% 30.68 in 10.0 mi West 6.9 mph - N/A   Clear
12:32 PM -7.6 °F -23.4 °F -18.4 °F 59% 30.67 in 10.0 mi WNW 8.1 mph - N/A   Clear
12:52 PM -7.1 °F -25.0 °F -18.0 °F 59% 30.67 in 10.0 mi West 10.4 mph - N/A   Clear
1:12 PM -6.5 °F -24.3 °F -17.0 °F 61% 30.65 in 10.0 mi West 10.4 mph - N/A   Clear
1:32 PM -6.5 °F -22.1 °F -17.1 °F 60% 30.65 in 10.0 mi West 8.1 mph - N/A   Clear
1:52 PM -6.0 °F -22.6 °F -16.6 °F 60% 30.64 in 10.0 mi West 9.2 mph - N/A   Clear
2:12 PM -5.8 °F -22.4 °F -16.6 °F 60% 30.63 in 10.0 mi West 9.2 mph - N/A   Clear
2:32 PM -5.4 °F -20.8 °F -16.1 °F 60% 30.63 in 10.0 mi West 8.1 mph - N/A   Clear
2:52 PM -5.1 °F -21.5 °F -15.7 °F 60% 30.63 in 10.0 mi West 9.2 mph - N/A   Clear
3:12 PM -4.9 °F -22.3 °F -15.3 °F 61% 30.63 in 10.0 mi West 10.4 mph - N/A   Clear
3:32 PM -4.9 °F -21.3 °F -15.0 °F 62% 30.63 in 10.0 mi West 9.2 mph - N/A   Clear
3:52 PM -4.9 °F -20.1 °F -15.0 °F 62% 30.61 in 10.0 mi West 8.1 mph - N/A   Clear
4:12 PM -4.7 °F -15.4 °F -14.8 °F 62% 30.61 in 10.0 mi West 4.6 mph - N/A   Clear
4:32 PM -4.9 °F -17.4 °F -14.4 °F 64% 30.61 in 10.0 mi WSW 5.8 mph - N/A   Clear
4:52 PM -5.3 °F -17.8 °F -14.1 °F 66% 30.60 in 10.0 mi WSW 5.8 mph - N/A   Clear
5:12 PM -5.6 °F -16.5 °F -13.9 °F 67% 30.59 in 10.0 mi WSW 4.6 mph - N/A   Clear
5:32 PM -9.9 °F -24.9 °F -17.0 °F 71% 30.58 in 10.0 mi SW 6.9 mph - N/A   Clear
5:52 PM -9.8 °F -21.3 °F -16.1 °F 74% 30.57 in 10.0 mi SSW 4.6 mph - N/A   Clear
6:12 PM -12.8 °F -26.8 °F -19.8 °F 71% 30.56 in 10.0 mi SSW 5.8 mph - N/A   Clear
6:32 PM -9.0 °F -20.4 °F -15.5 °F 73% 30.53 in 10.0 mi SSW 4.6 mph - N/A   Clear
6:52 PM -12.8 °F -24.9 °F -19.5 °F 72% 30.52 in 10.0 mi SSW 4.6 mph - N/A   Clear
7:12 PM -10.1 °F -21.7 °F -15.9 °F 76% 30.50 in 10.0 mi SSW 4.6 mph - N/A   Clear
7:32 PM -12.3 °F -24.2 °F -18.8 °F 73% 30.49 in 10.0 mi SSW 4.6 mph - N/A   Clear
7:52 PM -9.9 °F -24.9 °F -15.9 °F 75% 30.48 in 10.0 mi SSW 6.9 mph - N/A   Clear
8:12 PM -9.2 °F -20.7 °F -15.2 °F 75% 30.45 in 10.0 mi South 4.6 mph - N/A   Clear
8:32 PM -6.7 °F -22.3 °F -12.5 °F 76% 30.44 in 10.0 mi South 8.1 mph - N/A   Clear
8:52 PM -6.7 °F -17.7 °F -13.0 °F 74% 30.41 in 10.0 mi SSW 4.6 mph - N/A   Clear
9:12 PM -5.8 °F -18.4 °F -11.6 °F 76% 30.39 in 10.0 mi SSW 5.8 mph - N/A   Clear
9:32 PM -4.2 °F -21.4 °F -10.1 °F 76% 30.38 in 10.0 mi SSW 10.4 mph - N/A   Clear
9:52 PM -3.1 °F -19.1 °F -9.2 °F 75% 30.36 in 10.0 mi SSW 9.2 mph - N/A   Clear
10:12 PM -1.3 °F -19.6 °F -7.8 °F 74% 30.34 in 10.0 mi SSW 12.7 mph - N/A   Clear
10:32 PM 0.1 °F -19.8 °F -7.1 °F 72% 30.33 in 10.0 mi SSW 16.1 mph 20.7 mph N/A   Clear
10:52 PM 0.5 °F -20.0 °F -6.9 °F 71% 30.29 in 10.0 mi SSW 17.3 mph 20.7 mph N/A   Clear
11:12 PM 1.6 °F -15.9 °F -6.3 °F 69% 30.26 in 10.0 mi SSW 12.7 mph 19.6 mph N/A   Clear
11:32 PM 2.8 °F -12.7 °F -6.2 °F 66% 30.23 in 10.0 mi SSW 10.4 mph 17.3 mph N/A   Clear
11:52 PM 4.3 °F -11.7 °F -6.0 °F 63% 30.20 in 10.0 mi SSW 11.5 mph 18.4 mph N/A   Clear